Torna al catalogo

TIROS 8 DEB

AttivoVLEO
NORAD 19396·DEBRIS·🇺🇸 United States

Lanciato Dec 21, 1963 da Vandenberg Space Force Base

Loading…

Prossimi Passaggi (prossime 24 ore)

TLE

AggiornatoSource: Space-Track

Epoca: Sep 14, 2026, 11:33 UTC

1 19396U 63054E   26257.48151381  .00004268  00000-0  23391-3 0  9990
2 19396  58.4643 278.4354 0015723 147.8271 212.3752 15.16025086 47996

Traccia TIROS 8 DEB in tempo reale con AllMySat

Download on the App Store